Location: Charlie Elliott
(33.4688°N, 83.7353°W)
Time: 16:00:26
(UTC-04:00)

X-37B - Visible Passes

Search period start: 31 October 2020 00:00
Search period end: 09 November 2020 23:00
Orbit: 382 x 392 km, 45.0° (Epoch: 15 October)

Date Brightness Start Highest point End Pass type
(mag) Time Alt. Az. Time Alt. Az. Time Alt. Az.
31 Oct 3.7 05:54:32 10° SSE 05:55:32 11° SE 05:56:36 10° ESE visible
01 Nov 1.2 05:31:56 28° SSW 05:33:16 52° SE 05:36:23 10° ENE visible
02 Nov 3.9 04:36:45 14° E 04:36:45 14° E 04:37:26 10° E visible
02 Nov 1.4 06:09:04 15° W 06:11:19 35° NNW 06:14:17 10° NE visible
03 Nov 1.7 05:13:42 39° NE 05:13:42 39° NE 05:15:52 10° NE visible
04 Nov 2.1 05:50:29 21° NW 05:50:57 22° NNW 05:53:29 10° NNE visible
05 Nov 3.6 04:54:50 12° NE 04:54:50 12° NE 04:55:11 10° NE visible
05 Nov 3.0 06:28:09 10° NW 06:29:30 12° N 06:30:51 10° NNE visible
06 Nov 2.9 05:31:23 14° N 05:31:23 14° N 05:32:38 10° NNE visible
07 Nov 3.1 06:08:33 10° NNW 06:09:18 11° N 06:10:03 10° N visible
09 Nov 3.2 05:48:29 10° N 05:49:07 10° N 05:49:46 10° NNE visible
